Location: Feydey
(46.3431°N, 7.0106°E)
Time: 23:46:09
(UTC+00:00)

Cosmos 1607 - Pass Details

Date: 20 June 2021
Orbit: 911 x 992 km, 65.0° (Epoch: 23 July)

Event Time Altitude Azimuth Distance (km) Brightness Sun altitude
Rises 22:00:10 0° 323° (NW) 3,702 8.6 -17.1°
Reaches altitude 10° 22:02:46 10° 324° (NW) 2,743 7.6 -17.2°
Maximum altitude 22:09:13 87° 53° (NE) 977 4.0 -17.6°
Enters shadow 22:12:53 27° 143° (SE) 1,747 4.8 -17.9°
